When you browse on this site, cookies collect data to enhance your experience and personalize the content and advertising you see.
Visit our Privacy Policy to learn more. By continuing to use the site, you agree to this use of cookies and data.

Hourly Weather Tyurinka

Today, 22 September, Tuesday

Time Temperature Precipitation Wind Pressure Humidity
00:00 +10°C° 0 mm 4 mps 747 mmHg 87%
01:00 +10°C° 0 mm 4 mps 747 mmHg 89%
02:00 +9°C° 0 mm 3 mps 747 mmHg 94%
03:00 +9°C° 0 mm 3 mps 747 mmHg 94%
04:00 +8°C° 0 mm 4 mps 747 mmHg 95%
05:00 +8°C° 0 mm 4 mps 747 mmHg 95%
06:00 +9°C° 0 mm 5 mps 747 mmHg 91%
07:00 +10°C° 0 mm 5 mps 747 mmHg 87%
08:00 +13°C° 0 mm 6 mps 747 mmHg 82%
09:00 +14°C° 0 mm 6 mps 747 mmHg 75%
10:00 +16°C° 0 mm 6 mps 747 mmHg 68%
11:00 +17°C° 0 mm 7 mps 747 mmHg 62%
12:00 +18°C° 0 mm 7 mps 747 mmHg 59%
13:00 +18°C° 0 mm 7 mps 746 mmHg 57%
14:00 +20°C° 0 mm 7 mps 746 mmHg 55%
15:00 +19°C° 0 mm 6 mps 746 mmHg 59%
16:00 +17°C° 0 mm 5 mps 746 mmHg 64%
17:00 +16°C° 0 mm 5 mps 746 mmHg 68%
18:00 +15°C° 0 mm 5 mps 746 mmHg 72%
19:00 +14°C° 0 mm 4 mps 746 mmHg 75%
20:00 +13°C° 0 mm 4 mps 746 mmHg 79%
21:00 +12°C° 0 mm 4 mps 746 mmHg 82%
22:00 +12°C° 0 mm 4 mps 746 mmHg 84%
23:00 +11°C° 0 mm 4 mps 746 mmHg 87%

Tomorrow, 23 September, Wednesday

Time Temperature Precipitation Wind Pressure Humidity
00:00 +11°C° 0 mm 4 mps 746 mmHg 88%
01:00 +11°C° 0 mm 3 mps 746 mmHg 88%
02:00 +10°C° 0 mm 3 mps 746 mmHg 89%
03:00 +10°C° 0 mm 3 mps 746 mmHg 90%
04:00 +10°C° 0 mm 3 mps 746 mmHg 90%
05:00 +10°C° 0 mm 3 mps 746 mmHg 91%
06:00 +11°C° 0 mm 3 mps 747 mmHg 85%
07:00 +12°C° 0 mm 3 mps 747 mmHg 80%
08:00 +13°C° 0 mm 3 mps 747 mmHg 74%
09:00 +16°C° 0 mm 3 mps 747 mmHg 69%
10:00 +18°C° 0 mm 3 mps 747 mmHg 64%
11:00 +19°C° 0 mm 3 mps 747 mmHg 59%
12:00 +20°C° 0 mm 3 mps 747 mmHg 58%
13:00 +20°C° 0 mm 3 mps 747 mmHg 57%
14:00 +21°C° 0 mm 3 mps 747 mmHg 56%
15:00 +20°C° 0 mm 2 mps 746 mmHg 61%
16:00 +19°C° 0 mm 2 mps 746 mmHg 66%
17:00 +19°C° 0 mm 1 mps 746 mmHg 70%
18:00 +17°C° 0 mm 2 mps 746 mmHg 71%
19:00 +16°C° 0 mm 2 mps 746 mmHg 72%
20:00 +15°C° 0 mm 2 mps 746 mmHg 73%
21:00 +15°C° 0 mm 2 mps 746 mmHg 73%
22:00 +14°C° 0 mm 2 mps 746 mmHg 73%
23:00 +14°C° 0 mm 2 mps 746 mmHg 73%

Day after tomorrow, 24 September, Thursday

Time Temperature Precipitation Wind Pressure Humidity
00:00 +14°C° 0 mm 2 mps 747 mmHg 73%
01:00 +13°C° 0 mm 1 mps 747 mmHg 73%
02:00 +13°C° 0 mm 1 mps 747 mmHg 72%
03:00 +13°C° 0 mm 1 mps 747 mmHg 72%
04:00 +13°C° 0 mm 1 mps 747 mmHg 72%
05:00 +13°C° 0 mm 1 mps 747 mmHg 72%
06:00 +14°C° 0 mm 2 mps 747 mmHg 70%
07:00 +15°C° 0 mm 2 mps 747 mmHg 67%
08:00 +16°C° 0 mm 2 mps 747 mmHg 65%
09:00 +18°C° 0 mm 2 mps 747 mmHg 60%
10:00 +19°C° 0 mm 2 mps 747 mmHg 55%
11:00 +21°C° 0 mm 2 mps 747 mmHg 50%
12:00 +21°C° 0 mm 2 mps 747 mmHg 48%
13:00 +23°C° 0 mm 2 mps 747 mmHg 45%
14:00 +23°C° 0 mm 2 mps 747 mmHg 43%
15:00 +21°C° 0 mm 2 mps 747 mmHg 48%
16:00 +20°C° 0 mm 2 mps 747 mmHg 53%
17:00 +18°C° 0 mm 2 mps 747 mmHg 57%
18:00 +17°C° 0 mm 2 mps 747 mmHg 59%
19:00 +17°C° 0 mm 2 mps 747 mmHg 61%
20:00 +16°C° 0 mm 2 mps 747 mmHg 62%
21:00 +15°C° 0 mm 2 mps 747 mmHg 64%
22:00 +15°C° 0 mm 2 mps 747 mmHg 65%
23:00 +14°C° 0 mm 2 mps 747 mmHg 66%

25 September, Friday

Time Temperature Precipitation Wind Pressure Humidity
00:00 +14°C° 0 mm 2 mps 747 mmHg 67%
01:00 +14°C° 0 mm 2 mps 747 mmHg 67%
02:00 +13°C° 0 mm 2 mps 747 mmHg 68%
03:00 +13°C° 0 mm 2 mps 747 mmHg 69%
04:00 +13°C° 0 mm 2 mps 747 mmHg 70%
05:00 +12°C° 0 mm 2 mps 747 mmHg 71%
06:00 +12°C° 0 mm 3 mps 747 mmHg 68%
07:00 +14°C° 0 mm 3 mps 747 mmHg 65%
08:00 +16°C° 0 mm 3 mps 747 mmHg 63%
09:00 +18°C° 0 mm 3 mps 747 mmHg 58%
10:00 +19°C° 0 mm 3 mps 747 mmHg 54%
11:00 +21°C° 0 mm 3 mps 747 mmHg 50%
12:00 +22°C° 0 mm 4 mps 747 mmHg 48%
13:00 +22°C° 0 mm 4 mps 747 mmHg 46%
14:00 +23°C° 0 mm 4 mps 747 mmHg 44%
15:00 +21°C° 0 mm 4 mps 747 mmHg 50%
16:00 +20°C° 0 mm 4 mps 746 mmHg 55%
17:00 +19°C° 0 mm 3 mps 746 mmHg 61%
18:00 +18°C° 0 mm 4 mps 746 mmHg 62%
19:00 +17°C° 0 mm 4 mps 746 mmHg 63%
20:00 +15°C° 0 mm 4 mps 747 mmHg 64%
21:00 +15°C° 0 mm 4 mps 746 mmHg 64%
22:00 +15°C° 0 mm 4 mps 746 mmHg 65%
23:00 +14°C° 0 mm 4 mps 746 mmHg 66%

26 September, Saturday

Time Temperature Precipitation Wind Pressure Humidity
00:00 +14°C° 0 mm 4 mps 746 mmHg 66%
01:00 +13°C° 0 mm 4 mps 746 mmHg 67%
02:00 +13°C° 0 mm 4 mps 746 mmHg 68%
03:00 +12°C° 0 mm 4 mps 746 mmHg 68%
04:00 +12°C° 0 mm 4 mps 747 mmHg 67%
05:00 +12°C° 0 mm 4 mps 747 mmHg 67%
06:00 +13°C° 0 mm 4 mps 747 mmHg 63%
07:00 +14°C° 0 mm 5 mps 747 mmHg 58%
08:00 +15°C° 0 mm 5 mps 747 mmHg 54%
09:00 +16°C° 0 mm 6 mps 747 mmHg 51%
10:00 +19°C° 0 mm 6 mps 747 mmHg 47%
11:00 +20°C° 0 mm 6 mps 747 mmHg 44%
12:00 +21°C° 0 mm 6 mps 747 mmHg 44%
13:00 +21°C° 0 mm 6 mps 747 mmHg 45%
14:00 +21°C° 0 mm 6 mps 747 mmHg 45%
15:00 +20°C° 0 mm 6 mps 747 mmHg 49%
16:00 +19°C° 0 mm 5 mps 746 mmHg 52%
17:00 +17°C° 0 mm 5 mps 746 mmHg 56%
18:00 +17°C° 0 mm 5 mps 747 mmHg 56%
19:00 +16°C° 0 mm 5 mps 747 mmHg 55%
20:00 +16°C° 0 mm 5 mps 747 mmHg 55%
21:00 +16°C° 0 mm 5 mps 747 mmHg 54%
22:00 +15°C° 0 mm 5 mps 747 mmHg 54%
23:00 +15°C° 0 mm 6 mps 747 mmHg 53%

27 September, Sunday

Time Temperature Precipitation Wind Pressure Humidity
00:00 +15°C° 0 mm 5 mps 747 mmHg 52%
01:00 +14°C° 0 mm 5 mps 747 mmHg 50%
02:00 +14°C° 0 mm 5 mps 748 mmHg 49%
03:00 +13°C° 0 mm 5 mps 748 mmHg 48%
04:00 +13°C° 0 mm 5 mps 748 mmHg 47%
05:00 +12°C° 0 mm 5 mps 748 mmHg 46%
06:00 +13°C° 0 mm 6 mps 748 mmHg 47%
07:00 +13°C° 0 mm 6 mps 748 mmHg 47%
08:00 +14°C° 0 mm 7 mps 748 mmHg 48%
09:00 +15°C° 0 mm 7 mps 748 mmHg 45%
10:00 +16°C° 0 mm 7 mps 748 mmHg 42%
11:00 +17°C° 0 mm 8 mps 748 mmHg 39%
12:00 +18°C° 0 mm 8 mps 748 mmHg 40%
13:00 +18°C° 0 mm 8 mps 748 mmHg 40%
14:00 +20°C° 0 mm 8 mps 748 mmHg 40%
15:00 +18°C° 0 mm 7 mps 747 mmHg 42%
16:00 +17°C° 0 mm 6 mps 747 mmHg 43%
17:00 +16°C° 0 mm 6 mps 747 mmHg 45%
18:00 +17°C° 0 mm 6 mps 747 mmHg 43%
19:00 +17°C° 0 mm 7 mps 747 mmHg 40%
20:00 +17°C° 0 mm 8 mps 747 mmHg 38%
21:00 +16°C° 0 mm 7 mps 747 mmHg 37%
22:00 +16°C° 0 mm 7 mps 747 mmHg 37%
23:00 +16°C° 0 mm 7 mps 747 mmHg 36%
Show more